Regional Weather Roundup
Issued by NWS Goodland, KS

Home | Current Version | Previous Version | Text Only | Print | Product List | Glossary Off
Versions: 1 2 3 4 5 6 7 8 9 10 11 12 13 14 15 16 17 18 19 20 21 22 23 24 25 26 27 28 29 30 31 32 33 34 35 36 37 38 39 40 41 42 43 44 45 46 47 48 49 50

790
ASUS43 KGLD 231959
RWRGLD

GOODLAND FORECAST AREA HOURLY WEATHER ROUNDUP
NATIONAL WEATHER SERVICE GOODLAND KS
200 PM MDT SAT SEP 23 2017

...OFFICIAL OBSERVATIONS...

CITY           SKY/WX    TMP DP  RH WIND       PRES   REMARKS
GOODLAND KS    CLOUDY    58  53  84 NW8       29.91F
HILL CITY KS   PTSUNNY   91  64  40 S22G33    29.82F
IMPERIAL NEB   PTSUNNY   57  52  83 N12       29.92F
MCCOOK NEB     CLOUDY    71  57  61 NW18G33   29.85F
AKRON CO       LGT RAIN  48  46  93 E9        29.95S
BURLINGTON CO  CLOUDY    62  50  64 NE7       29.94F
LIMON CO         N/A    N/A N/A N/A MISG      29.92F
$$

...UNOFFICIAL OBSERVATIONS...

CITY           SKY/WX    TMP DP  RH WIND       PRES   REMARKS
LENORA KS        N/A     81  32  17 MISG        N/A
NORTON KS      MOSUNNY   86  55  35 S14       29.82F
SHARON SPRINGS   N/A     59  57  92 NW8         N/A
KIT CARSON CO    N/A     58  53  85 MISG        N/A
YUMA CO        LGT RAIN  50  48  93 E9        29.94F
$$




USA.gov is the U.S. government's official web portal to all federal, state and local government web resources and services.